This demonstration page uses our WeatherBlox Daily Observations layout. Learn more.

40.92945, -100.16068

Hourly Observations for April 1, 2018

Temp ( °F °C ) Dew Point ( °F °C ) Humidity (%) Winds ( mph kmh ) Pressure ( in mb ) Visibility ( mi km ) Precip ( " mm )
12:15 am 00:15 Cloudy with Light Snow 25 -4 21 -6.2 85 85 NNE 12 19 30.5 1033 1.75 2.816345 0 0
12:35 am 00:35 Cloudy with Light Snow 24 -4.2 21 -6 87 87 NNE 10 17 30.5 1033 2 3.21868 0 0
12:55 am 00:55 Cloudy with Snow 24 -4.5 21 -6 89 89 NNE 8 13 30.5 1033 1 1.60934 0.01 0.254
1:15 am 01:15 Cloudy with Light Snow 24 -4.5 21 -6 89 89 NNE 8 13 30.5 1033 2 3.21868 0.01 0.254
1:35 am 01:35 Cloudy with Light Snow 24 -4.5 21 -6 89 89 NNE 9 15 30.5 1033 1.75 2.816345 0.01 0.254
1:55 am 01:55 Cloudy with Light Snow 24 -4.7 21 -6.2 89 89 NNE 8 13 30.48 1032 3 4.82802 0.02 0.508
2:15 am 02:15 Cloudy with Light Snow 23 -4.8 21 -6.3 89 89 NNE 8 13 30.48 1032 4 6.43736 0 0
2:35 am 02:35 Cloudy with Light Snow 23 -4.8 20 -6.5 88 88 NNE 7 11 30.48 1032 10 16.0934 0 0
2:55 am 02:55 Cloudy with Light Snow 23 -4.8 20 -6.5 88 88 NE 6 9 30.48 1032 7 11.26538 0 0
3:15 am 03:15 Cloudy with Light Snow 23 -4.8 20 -6.5 88 88 ENE 5 7 30.45 1031 7 11.26538 0 0
3:35 am 03:35 Cloudy 23 -4.8 20 -6.5 88 88 ENE 6 9 30.45 1031 10 16.0934 0 0
3:55 am 03:55 Cloudy 23 -4.8 20 -6.7 87 87 E 3 6 30.45 1031 10 16.0934 0 0
4:15 am 04:15 Cloudy with Light Snow 23 -4.8 20 -6.8 86 86 ENE 5 7 30.45 1031 5 8.0467 0 0
4:35 am 04:35 Cloudy with Light Snow 23 -5 20 -6.8 87 87 ENE 5 7 30.45 1031 2.5 4.02335 0 0
4:55 am 04:55 Cloudy with Light Snow 23 -5 20 -6.7 88 88 NE 6 9 30.42 1030 2.5 4.02335 0 0
5:15 am 05:15 Cloudy with Light Snow 23 -5 20 -6.6 89 89 NNE 5 7 30.42 1030 4 6.43736 0 0
5:35 am 05:35 Cloudy with Light Snow 23 -5 20 -6.6 89 89 NNE 3 6 30.42 1030 4 6.43736 0 0
5:55 am 05:55 Cloudy with Light Snow 23 -5 20 -6.5 89 89 NNE 5 7 30.42 1030 2 3.21868 0 0
6:15 am 06:15 Cloudy with Light Snow 23 -5 20 -6.5 89 89 ENE 5 7 30.42 1030 2 3.21868 0 0
6:35 am 06:35 Cloudy with Light Snow 23 -5.1 20 -6.7 89 89 ENE 5 7 30.42 1030 2 3.21868 0.01 0.254
6:55 am 06:55 Cloudy with Light Snow 23 -5.1 20 -6.6 89 89 NE 3 6 30.42 1030 1.5 2.41401 0.01 0.254
7:15 am 07:15 Cloudy with Light Snow 23 -5.1 20 -6.5 90 90 Calm 30.45 1031 1.75 2.816345 0.01 0.254
7:35 am 07:35 Cloudy with Light Snow 23 -5.1 20 -6.5 90 90 Calm 30.45 1031 0.75 1.207005 0.01 0.254
7:55 am 07:55 Cloudy with Light Snow 23 -5.2 20 -6.7 89 89 E 5 7 30.45 1031 0.75 1.207005 0.01 0.254
8:15 am 08:15 Cloudy with Light Snow 22 -5.3 20 -6.7 90 90 E 5 7 30.45 1031 0.75 1.207005 0.01 0.254
8:35 am 08:35 Cloudy with Snow 22 -5.5 19 -7 89 89 E 6 9 30.42 1030 0.5 0.80467 0.01 0.254
8:55 am 08:55 Cloudy with Snow 22 -5.4 19 -7 89 89 E 6 9 30.42 1030 0.5 0.80467 0.01 0.254
9:15 am 09:15 Cloudy with Light Snow 22 -5.3 19 -7 88 88 E 3 6 30.45 1031 0.75 1.207005 0.03 0.762
9:35 am 09:35 Cloudy with Light Snow 23 -5.2 19 -7 87 87 E 3 6 30.45 1031 0.75 1.207005 0.06 1.524
9:55 am 09:55 Cloudy with Light Snow 23 -5 19 -7 86 86 SSE 5 7 30.45 1031 0.75 1.207005 0.08 2.032
10:15 am 10:15 Cloudy with Light Snow 23 -4.8 19 -7 85 85 SE 6 9 30.45 1031 1.25 2.011675 0.01 0.254
10:35 am 10:35 Cloudy with Light Snow 24 -4.6 19 -7 84 84 ESE 5 7 30.45 1031 1.5 2.41401 0.02 0.508
10:55 am 10:55 Cloudy with Light Snow 24 -4.6 19 -7.1 83 83 ESE 6 9 30.45 1031 1.75 2.816345 0.02 0.508
11:15 am 11:15 Cloudy with Light Snow 24 -4.4 19 -7.3 80 80 ESE 7 11 30.45 1031 4 6.43736 0.01 0.254
11:35 am 11:35 Cloudy 25 -4 19 -7.4 77 77 ESE 6 9 30.42 1030 10 16.0934 0.01 0.254
11:55 am 11:55 Cloudy with Light Snow 25 -4 19 -7.3 78 78 Calm 30.45 1031 7 11.26538 0.02 0.508
12:15 pm 12:15 Cloudy with Haze 26 -3.1 20 -6.9 75 75 SSE 3 6 30.42 1030 5 8.0467 0 0
12:35 pm 12:35 Cloudy 26 -3.3 19 -7 76 76 S 3 6 30.42 1030 10 16.0934 0 0
12:55 pm 12:55 Cloudy 27 -3 19 -7 74 74 SSW 3 6 30.42 1030 10 16.0934 0 0
1:15 pm 13:15 Cloudy 27 -2.8 19 -7 73 73 SSE 3 6 30.39 1029 10 16.0934 0 0
1:35 pm 13:35 Cloudy 28 -2.3 19 -7 70 70 Calm 30.36 1028 10 16.0934 0 0
1:55 pm 13:55 Cloudy 28 -2.4 19 -7.4 69 69 SSE 3 6 30.33 1027 10 16.0934 0 0
2:15 pm 14:15 Cloudy 29 -1.9 19 -7.3 67 67 SSE 6 9 30.33 1027 10 16.0934 0 0
2:35 pm 14:35 Cloudy 29 -1.9 19 -7.4 66 66 S 5 7 30.33 1027 10 16.0934 0 0
2:55 pm 14:55 Cloudy 28 -2 19 -7.3 67 67 SSE 7 11 30.3 1026 10 16.0934 0 0
3:15 pm 15:15 Mostly Cloudy 28 -2.1 19 -7.3 68 68 SE 6 9 30.3 1026 10 16.0934 0 0
3:35 pm 15:35 Mostly Cloudy 28 -2.4 19 -7.1 70 70 SE 6 9 30.27 1025 10 16.0934 0 0
3:55 pm 15:55 Mostly Cloudy 29 -1.9 20 -6.8 70 70 S 7 11 30.27 1025 10 16.0934 0 0
4:15 pm 16:15 Mostly Cloudy 28 -2.1 19 -7.1 69 69 S 7 11 30.27 1025 10 16.0934 0 0
4:35 pm 16:35 Mostly Cloudy 28 -2.3 19 -7 70 70 SSE 8 13 30.27 1025 10 16.0934 0 0
4:55 pm 16:55 Partly Cloudy 28 -2 20 -6.8 70 70 SSE 7 11 30.24 1024 10 16.0934 0 0
5:15 pm 17:15 Partly Cloudy 28 -2.5 20 -6.7 73 73 SSE 9 15 30.24 1024 10 16.0934 0 0
5:35 pm 17:35 Partly Cloudy 28 -2.3 19 -7.1 70 70 SSE 7 11 30.24 1024 10 16.0934 0 0
5:55 pm 17:55 Partly Cloudy 28 -2.3 19 -7.1 70 70 SSE 7 11 30.24 1024 10 16.0934 0 0
6:15 pm 18:15 Sunny 28 -2.3 18 -7.7 67 67 SE 8 13 30.21 1023 10 16.0934 0 0
6:35 pm 18:35 Sunny 28 -2.3 20 -6.7 72 72 SE 8 13 30.21 1023 10 16.0934 0 0
6:55 pm 18:55 Partly Cloudy 34 1.2 13 -10.3 42 42 NNE 16 26 30.36 1028 10 16.0934 0 0
7:15 pm 19:15 Sunny 28 -2.5 19 -7 72 72 SE 8 13 30.18 1022 10 16.0934 0 0
7:35 pm 19:35 Sunny 27 -3 20 -6.9 75 75 SE 8 13 30.18 1022 10 16.0934 0 0
7:55 pm 19:55 Sunny 26 -3.5 19 -7 77 77 SE 9 15 30.18 1022 10 16.0934 0 0
8:15 pm 20:15 Clear 25 -4 19 -7.1 79 79 SE 9 15 30.18 1022 10 16.0934 0 0
8:35 pm 20:35 Clear 24 -4.3 19 -7.1 81 81 SE 8 13 30.18 1022 10 16.0934 0 0
8:55 pm 20:55 Clear 24 -4.5 19 -7.3 81 81 SE 9 15 30.18 1022 10 16.0934 0 0
9:15 pm 21:15 Clear 24 -4.7 19 -7.5 81 81 SE 7 11 30.18 1022 10 16.0934 0 0
9:35 pm 21:35 Clear 23 -4.9 19 -7.5 82 82 SE 13 20 30.21 1023 10 16.0934 0 0
9:55 pm 21:55 Clear 23 -5 18 -7.6 82 82 SE 12 19 30.21 1023 10 16.0934 0 0
10:15 pm 22:15 Clear 23 -5 19 -7.5 83 83 SE 12 19 30.21 1023 10 16.0934 0 0
10:35 pm 22:35 Clear 22 -5.3 18 -7.6 84 84 SE 9 15 30.21 1023 10 16.0934 0 0
10:55 pm 22:55 Clear 22 -5.5 19 -7.5 86 86 SE 9 15 30.21 1023 10 16.0934 0 0
11:15 pm 23:15 Clear 22 -5.5 19 -7.5 86 86 SE 9 15 30.18 1022 10 16.0934 0 0
11:35 pm 23:35 Clear 22 -5.3 19 -7.4 85 85 SE 8 13 30.18 1022 10 16.0934 0 0
11:55 pm 23:55 Clear 23 -5.2 19 -7.3 85 85 SSE 13 20 30.18 1022 10 16.0934 0 0

Powered by AerisWeather